This is the latest recevied weather packets stored in our database for station/object WD9EKA. If no packets are shown the sender has not sent any weather packets the latest 10 day(s).
| Time | Temp. | Humidity | Pressure | Rain* | Wind** | Luminosity | Snow |
|---|---|---|---|---|---|---|---|
| 1787584713 | 23.33° C | 70% | 1013.5 hPa | 0 mm | - | - | - |
| 1787584353 | 23.33° C | 71% | 1013.3 hPa | 0 mm | - | - | - |
| 1787583993 | 22.78° C | 73% | 1013.4 hPa | 0 mm | - | - | - |
| 1787583634 | 22.22° C | 73% | 1013.7 hPa | 0 mm | - | - | - |
| 1787583273 | 22.22° C | 75% | 1013.3 hPa | 0 mm | - | - | - |
| 1787582913 | 22.22° C | 76% | 1013.4 hPa | 0 mm | - | - | - |
| 1787582553 | 22.22° C | 75% | 1013.3 hPa | 0 mm | - | - | - |
| 1787582193 | 21.67° C | 78% | 1013.2 hPa | 0 mm | - | - | - |
| 1787581833 | 21.67° C | 77% | 1013.3 hPa | 0 mm | - | - | - |
| 1787581473 | 22.22° C | 78% | 1013.4 hPa | 0 mm | - | - | - |
| 1787581114 | 21.67° C | 74% | 1013.4 hPa | 0 mm | - | - | - |
| 1787580754 | 20.56° C | 82% | 1013.3 hPa | 0 mm | - | - | - |
| 1787580393 | 19.44° C | 89% | 1013.3 hPa | 0 mm | - | - | - |
| 1787580034 | 19.44° C | 98% | 1013.5 hPa | 0 mm | - | - | - |
| 1787579674 | 18.89° C | 99% | 1013.5 hPa | 0 mm | - | - | - |
| 1787579313 | 18.89° C | 99% | 1013.6 hPa | 0 mm | - | - | - |
| 1787578953 | 18.33° C | 99% | 1013.4 hPa | 0 mm | - | - | - |
| 1787578594 | 18.33° C | 99% | 1013.6 hPa | 0 mm | - | - | - |
| 1787578275 | 17.78° C | 99% | 1013.5 hPa | 0 mm | - | - | - |
| 1787577955 | 17.78° C | 99% | 1013.5 hPa | 0 mm | - | - | - |
| 1787577634 | 17.22° C | 99% | 1013.6 hPa | 0 mm | - | - | - |
| 1787577273 | 17.22° C | 99% | 1013.5 hPa | 0 mm | - | - | - |
| 1787576913 | 16.67° C | 99% | 1013.4 hPa | 0 mm | - | - | - |
| 1787576553 | 16.67° C | 99% | 1013.5 hPa | 0 mm | - | - | - |
| 1787576193 | 16.11° C | 99% | 1013.4 hPa | 0 mm | - | - | - |
* Rain latest hour (hover to see other rain measurements)
** Current wind speed in m/s (hover to see current wind gust speed)